Location: Gilevgi
(36.8751°N, 30.0581°E)
Time: 18:06:04
(UTC+00:00)

YAOGAN 1 - Pass Details

Date: 11 December 2025
Orbit: 605 x 607 km, 97.8° (Epoch: 15 January)

Event Time Altitude Azimuth Distance (km) Brightness Sun altitude
Rises 16:50:08 0° 178° (S) 2,848 6.1 -24.6°
Reaches altitude 10° 16:52:20 10° 183° (S) 1,949 5.3 -25.0°
Maximum altitude 16:56:28 52° 260° (W) 754 3.2 -25.8°
Drops below altitude 10° 17:00:38 10° 338° (NNW) 1,963 5.2 -26.6°
Sets 17:02:52 0° 343° (NNW) 2,871 6.1 -27.1°
